Location: Hains Lake
(37.8540°N, 99.8578°W)
Time: 22:46:21
(UTC+00:00)

deb Explorer IX - Pass Details

Date: 22 April 2021
Orbit: 541 x 1098 km, 38.8° (Epoch: 13 May)

Event Time Altitude Azimuth Distance (km) Brightness Sun altitude
Exits shadow 11:49:44 -1° 227° (SW) 2,765 ? -1.7°
Rises 11:49:57 0° 226° (SW) 2,681 ? -1.7°
Reaches altitude 10° 11:52:18 10° 216° (SW) 1,789 ? -1.2°
Maximum altitude 11:55:57 32° 152° (SSE) 947 ? -0.5°
Drops below altitude 10° 11:59:46 10° 88° (E) 1,886 ? 0.2°
Sets 12:02:19 0° 79° (E) 2,852 ? 0.7°
